Weather History for Luqa, Malta

Change the Weather History Date:

Wednesday, April 2, 2014

  Actual Average Record
Temperature  
Mean Temperature 58 °F -  
Max Temperature 66 °F 67 °F 78 °F (2006)
Min Temperature 51 °F 53 °F 44 °F (1997)
Degree Days  
Heating Degree Days 6    
Growing Degree Days 8 (Base 50)    
Moisture  
Dew Point 55 °F    
Average Humidity 85    
Maximum Humidity 94    
Minimum Humidity 64    
Precipitation  
Precipitation 0.01 in 0.03 in - ()
Sea Level Pressure  
Sea Level Pressure 30.03 in    
Wind  
Wind Speed 6 mph ()    
Max Wind Speed 13 mph    
Max Gust Speed -    
Visibility 4.7 miles    
Events Fog    
Averages and records for this station are not official NWS values.
T = Trace of Precipitation, MM = Missing Value Source: Averaged Metar Reports

Daily Weather History Graph

Daily Weather History Graph

Search for Another Location

Airport:

Trip Planner

Search our weather history database for the weather conditions in past years. The results will help you decide how hot, cold, wet, or windy it might be!

Date:

Astronomy

Apr. 02, 2014 Rise Set
Actual Time 6:47 AM CEST 7:24 PM CEST
Civil Twilight 6:21 AM CEST 7:50 PM CEST
Nautical Twilight 5:51 AM CEST 8:20 PM CEST
Astronomical Twilight 5:20 AM CEST 8:51 PM CEST
Moon 8:24 AM CEST 10:24 PM CEST
Length of Visible Light 13h 28m
Length of Day
12h 37m
Waxing Crescent, 8% of the Moon is Illuminated
Apr 2
Waxing Crescent
Apr 7
First Quarter
Apr 15
Full
Apr 22
Last Quarter
Apr 29
New

Hourly Weather History & Observations

Time (CEST) Temp. Dew Point Humidity Pressure Visibility Wind Dir Wind Speed Gust Speed Precip Events Conditions
12:15 AM 55.4 °F 53.6 °F 94% 30.06 in - West 8.1 mph - N/A   Clear
12:45 AM 55.4 °F 53.6 °F 94% 30.06 in - West 6.9 mph - N/A   Clear
1:15 AM 55.4 °F 51.8 °F 88% 30.06 in - West 6.9 mph - N/A   Clear
1:45 AM 55.4 °F 51.8 °F 88% 30.06 in - West 6.9 mph - N/A   Clear
2:00 AM 56 °F 53 °F 86% 30.08 in 6 mi West 5.8 mph - -  
2:05 AM 55.4 °F 51.8 °F 88% 30.06 in - West 4.6 mph - N/A   Unknown
2:15 AM 55.4 °F 51.8 °F 88% 30.06 in 3.1 mi West 4.6 mph - N/A   Unknown
2:45 AM 55.4 °F 51.8 °F 88% 30.06 in 3.1 mi West 5.8 mph - N/A   Unknown
3:15 AM 55.4 °F 51.8 °F 88% 30.04 in 3.1 mi West 5.8 mph - N/A   Mist
3:45 AM 55.4 °F 51.8 °F 88% 30.04 in - West 5.8 mph - N/A   Mist
4:15 AM 53.6 °F 51.8 °F 94% 30.04 in 2.8 mi West 6.9 mph - N/A   Mist
4:45 AM 53.6 °F 51.8 °F 94% 30.04 in - West 5.8 mph - N/A   Mist
5:00 AM 54 °F 52 °F 92% 30.05 in 3 mi West 5.8 mph - -   Mist
5:15 AM 55.4 °F 53.6 °F 94% 30.04 in 1.2 mi West 5.8 mph - N/A   Mist
5:16 AM 55.4 °F 53.6 °F 94% 30.04 in 3.1 mi West 5.8 mph - N/A   Partly Cloudy
5:45 AM 55.4 °F 51.8 °F 88% 30.04 in 3.1 mi West 3.5 mph - N/A   Partly Cloudy
6:15 AM 53.6 °F 51.8 °F 94% 30.04 in 3.1 mi WSW 3.5 mph - N/A Fog Shallow Fog
6:45 AM 51.8 °F 50.0 °F 94% 30.04 in 3.1 mi Variable 1.2 mph - N/A Fog Fog
7:15 AM 53.6 °F 51.8 °F 94% 30.04 in 3.1 mi WSW 3.5 mph - N/A   Partly Cloudy
7:45 AM 55.4 °F 53.6 °F 94% 30.06 in 4.3 mi WSW 3.5 mph - N/A   Partly Cloudy
8:00 AM 56 °F 55 °F 94% 30.07 in 4 mi WSW 3.5 mph - -   Mist
8:15 AM 57.2 °F 55.4 °F 94% 30.06 in 5.0 mi WSW 3.5 mph - N/A   Partly Cloudy
8:45 AM 59.0 °F 55.4 °F 88% 30.06 in 5.6 mi SW 3.5 mph - N/A   Partly Cloudy
9:15 AM 60.8 °F 55.4 °F 82% 30.06 in 6.2 mi WSW 4.6 mph - N/A   Partly Cloudy
9:45 AM 62.6 °F 55.4 °F 77% 30.06 in 6.2 mi WSW 4.6 mph - N/A   Partly Cloudy
10:15 AM 62.6 °F 53.6 °F 72% 30.06 in 6.2 mi WSW 5.8 mph - N/A   Partly Cloudy
10:45 AM 62.6 °F 53.6 °F 72% 30.06 in 6.2 mi SW 5.8 mph - N/A   Partly Cloudy
11:00 AM 64 °F 55 °F 65% 30.07 in 9 mi SW 6.9 mph - -   Scattered Clouds
11:15 AM 62.6 °F 55.4 °F 77% 30.06 in 6.2 mi SSW 6.9 mph - N/A   Partly Cloudy
11:45 AM 64.4 °F 55.4 °F 73% 30.06 in 6.2 mi SW 8.1 mph - N/A   Partly Cloudy
12:15 PM 64.4 °F 55.4 °F 73% 30.06 in 6.2 mi SW 10.4 mph - N/A   Partly Cloudy
12:45 PM 64.4 °F 55.4 °F 73% 30.06 in 6.2 mi SSW 11.5 mph - N/A   Partly Cloudy
1:15 PM 64.4 °F 55.4 °F 73% 30.04 in 6.2 mi SSW 12.7 mph - N/A   Partly Cloudy
2:45 PM 66.2 °F 53.6 °F 64% 30.04 in - SW 10.4 mph - N/A   Clear
3:15 PM 66.2 °F 53.6 °F 64% 30.01 in - SW 10.4 mph - N/A   Clear
3:45 PM 66.2 °F 55.4 °F 68% 30.01 in - SW 8.1 mph - N/A   Clear
4:15 PM 66.2 °F 55.4 °F 68% 30.01 in - SSW 8.1 mph - N/A   Clear
4:45 PM 64.4 °F 55.4 °F 73% 30.01 in - SW 8.1 mph - N/A   Clear
5:00 PM 64 °F 56 °F 67% 30.00 in 9 mi SW 8.1 mph - -   Clear
5:15 PM 62.6 °F 55.4 °F 77% 29.98 in - SSW 8.1 mph - N/A   Clear
5:45 PM 62.6 °F 57.2 °F 82% 29.98 in - South 6.9 mph - N/A   Clear
6:45 PM 60.8 °F 57.2 °F 88% 29.98 in 5.6 mi SSW 8.1 mph - N/A   Partly Cloudy
7:15 PM 60.8 °F 57.2 °F 88% 29.98 in 5.6 mi SSW 8.1 mph - N/A   Partly Cloudy
7:45 PM 60.8 °F 57.2 °F 88% 29.98 in 4.3 mi South 8.1 mph - N/A   Unknown
8:00 PM 60 °F 57 °F 87% 29.99 in 4 mi SSW 9.2 mph - -  
8:15 PM 59.0 °F 57.2 °F 94% 29.98 in 4.3 mi SSW 9.2 mph - N/A   Partly Cloudy
8:45 PM 59.0 °F 57.2 °F 94% 29.98 in 5.0 mi SSW 8.1 mph - N/A   Partly Cloudy
9:15 PM 59.0 °F 57.2 °F 94% 29.98 in 5.0 mi SSW 8.1 mph - N/A   Partly Cloudy
9:45 PM 59.0 °F 57.2 °F 94% 29.98 in 5.0 mi SSW 8.1 mph - N/A   Partly Cloudy
10:15 PM 59.0 °F 57.2 °F 94% 29.98 in 3.7 mi SSW 8.1 mph - N/A   Mist
10:45 PM 59.0 °F 57.2 °F 94% 29.98 in 3.7 mi SW 6.9 mph - N/A   Mist
11:00 PM 59 °F 57 °F 92% 30.00 in 4 mi SSW 6.9 mph - -   Mist
11:15 PM 59.0 °F 57.2 °F 94% 29.98 in 3.7 mi SSW 8.1 mph - N/A   Mist
11:45 PM 59.0 °F 57.2 °F 94% 29.98 in 3.7 mi SSW 9.2 mph - N/A   Mist